GW2696 Weather Reports


Display with metric or nautical units.
time (UTC)temp
F
wind
direction
speed
MPH
gust
MPH
rain 1hr
in
rain 24hr
in
rain mn
in
humidity
%
barometer
mb
20260505192218 57 158 2.0 8.0 0.00 0.00 0.00 42 1012.3
20260505191238 55 203 7.0 15.0 0.00 0.00 0.00 48 1012.2
20260505190218 54 135 4.0 6.0 0.00 0.00 0.00 48 1012.3
20260505185218 54 135 3.0 10.0 0.00 0.00 0.00 45 1012.1
20260505184217 54 203 6.0 10.0 0.00 0.00 0.00 42 1011.9
20260505183218 55 203 10.0 13.0 0.00 0.00 0.00 38 1012.1
20260505182218 55 248 5.0 9.0 0.00 0.00 0.00 40 1012.5
20260505181217 54 203 6.0 11.0 0.00 0.00 0.00 43 1012.1
20260505180218 53 203 5.0 8.0 0.00 0.00 0.00 39 1011.9
20260505175218 53 180 5.0 10.0 0.00 0.00 0.00 43 1011.9
20260505174218 53 180 8.0 13.0 0.00 0.00 0.00 41 1011.9
20260505173258 53 203 6.0 11.0 0.00 0.00 0.00 42 1012.4
20260505172218 52 225 6.0 10.0 0.00 0.00 0.00 46 1012.0
20260505171238 51 293 2.0 5.0 0.00 0.00 0.00 46 1011.4
20260505170258 50 203 8.0 11.0 0.00 0.00 0.00 45 1011.6
20260505165218 49 203 8.0 15.0 0.00 0.00 0.00 49 1011.5
20260505164238 48 180 7.0 9.0 0.00 0.00 0.00 49 1011.4
20260505163218 48 203 10.0 12.0 0.00 0.00 0.00 50 1011.9
20260505162217 48 203 9.0 12.0 0.00 0.00 0.00 50 1011.8
20260505161217 48 225 7.0 10.0 0.00 0.00 0.00 51 1011.8
20260505160237 48 203 8.0 10.0 0.00 0.00 0.00 50 1011.6
20260505153217 48 203 8.0 15.0 0.00 0.00 0.00 51 1011.5
20260505152238 48 180 8.0 12.0 0.00 0.00 0.00 53 1011.5
20260505151218 48 203 4.0 6.0 0.00 0.00 0.00 58 1011.6
20260505150238 48 203 7.0 9.0 0.00 0.00 0.00 54 1011.6
20260505140217 45 203 8.0 12.0 0.00 0.00 0.00 64 1011.2
20260505130217 42 0.0 0.0 0.00 0.00 0.00 65 1010.8
20260505124217 43 0.0 0.0 0.00 0.00 0.00 64 1010.9
20260505123217 43 203 5.0 6.0 0.00 0.00 0.00 64 1011.0
20260505122218 43 225 3.0 6.0 0.00 0.00 0.00 64 1010.9
20260505121217 44 203 1.0 3.0 0.00 0.00 0.00 63 1010.9
20260505120217 44 0.0 0.0 0.00 0.00 0.00 62 1011.4
20260505115238 44 0.0 2.0 0.00 0.00 0.00 61 1011.6
20260505114217 44 315 3.0 4.0 0.00 0.00 0.00 61 1011.7
20260505113217 44 203 4.0 10.0 0.00 0.00 0.00 62 1011.8
20260505112237 44 203 10.0 17.0 0.00 0.00 0.00 63 1011.8
20260505111217 44 225 5.0 9.0 0.00 0.00 0.00 63 1011.7
20260505110217 44 203 5.0 8.0 0.00 0.00 0.00 61 1011.6
20260505102217 44 203 4.0 8.0 0.00 0.00 0.00 54 1011.8
20260505101217 44 270 1.0 6.0 0.00 0.00 0.00 55 1012.0
20260505100217 44 203 4.0 5.0 0.00 0.00 0.00 55 1012.3
20260505095217 44 225 5.0 8.0 0.00 0.00 0.00 55 1012.4
20260505094217 44 225 5.0 8.0 0.00 0.00 0.00 54 1012.7
20260505093217 44 225 4.0 10.0 0.00 0.00 0.00 52 1012.7
20260505092217 44 180 7.0 12.0 0.00 0.00 0.00 54 1012.6
20260505091217 45 203 6.0 8.0 0.00 0.00 0.00 52 1012.6
20260505090217 45 203 8.0 10.0 0.00 0.00 0.00 52 1012.8
20260505085217 45 225 3.0 6.0 0.00 0.00 0.00 49 1013.1
20260505084217 46 248 5.0 8.0 0.00 0.00 0.00 48 1013.0
20260505083217 46 203 10.0 16.0 0.00 0.00 0.00 46 1013.1
20260505082216 45 203 6.0 25.0 0.00 0.00 0.00 49 1013.4
20260505081217 45 270 5.0 10.0 0.00 0.00 0.00 47 1013.3
20260505080217 46 270 1.0 4.0 0.00 0.00 0.00 45 1013.6
20260505075217 46 180 8.0 12.0 0.00 0.00 0.00 44 1013.8
20260505074216 46 248 3.0 6.0 0.00 0.00 0.00 43 1013.8
20260505073237 46 293 4.0 10.0 0.00 0.00 0.00 42 1013.6
20260505072218 46 203 9.0 16.0 0.00 0.00 0.00 42 1013.0
20260505071217 46 180 10.0 25.0 0.00 0.00 0.00 42 1012.8
20260505070346 46 203 8.0 12.0 0.00 0.00 0.00 43 1012.5
20260505065218 47 203 8.0 13.0 0.00 0.00 0.00 43 1012.8
20260505064239 47 203 10.0 17.0 0.00 0.00 0.00 46 1012.6
20260505063218 47 203 16.0 22.0 0.00 0.00 0.00 49 1011.7
20260505062218 47 203 16.0 28.0 0.00 0.00 0.00 50 1011.8
20260505061219 47 203 15.0 26.0 0.00 0.00 0.00 50 1011.6
20260505060239 48 203 12.0 17.0 0.00 0.00 0.00 50 1011.5
20260505055218 48 203 14.0 25.0 0.00 0.00 0.00 48 1011.3
20260505054239 48 203 20.0 27.0 0.00 0.00 0.00 47 1011.6
20260505053238 48 203 18.0 24.0 0.00 0.00 0.00 46 1011.6
20260505052218 48 203 14.0 20.0 0.00 0.00 0.00 43 1011.4
20260505051238 49 203 16.0 24.0 0.00 0.00 0.00 41 1011.5
20260505050218 49 203 15.0 22.0 0.00 0.00 0.00 38 1011.5
20260505041238 50 203 14.0 19.0 0.00 0.00 0.00 33 1011.4
20260505040218 50 203 13.0 22.0 0.00 0.00 0.00 32 1010.8
20260505035217 50 203 21.0 32.0 0.00 0.00 0.00 32 1010.7
20260505034217 51 225 17.0 27.0 0.00 0.00 0.00 32 1010.9
20260505033217 51 225 16.0 28.0 0.00 0.00 0.00 31 1010.5
20260505032218 51 203 17.0 22.0 0.00 0.00 0.00 29 1010.2
20260505031217 51 203 18.0 26.0 0.00 0.00 0.00 29 1010.1
20260505030238 51 203 16.0 24.0 0.00 0.00 0.00 28 1009.4
20260505025218 52 203 14.0 20.0 0.00 0.00 0.00 28 1009.2
20260505024217 52 225 17.0 29.0 0.00 0.00 0.00 30 1009.4
20260505023259 52 203 12.0 20.0 0.00 0.00 0.00 31 1009.7
20260505022217 52 203 15.0 26.0 0.00 0.00 0.00 32 1009.1
20260505021217 52 203 14.0 23.0 0.00 0.00 0.00 33 1009.5
20260505020217 52 203 18.0 24.0 0.00 0.00 0.00 33 1009.8
20260505015217 52 203 16.0 22.0 0.00 0.00 0.00 34 1009.6
20260505014217 52 203 19.0 25.0 0.00 0.00 0.00 33 1009.4
20260505013217 53 225 18.0 30.0 0.00 0.00 0.00 34 1009.3
20260505012217 53 203 19.0 25.0 0.00 0.00 0.00 35 1009.3
20260505011218 53 203 14.0 21.0 0.00 0.00 0.00 36 1009.3
20260505010217 53 203 22.0 31.0 0.00 0.00 0.00 37 1009.2
20260505005218 54 203 18.0 24.0 0.00 0.00 0.00 38 1009.6
20260505004217 54 203 20.0 30.0 0.00 0.00 0.00 38 1009.9
20260505003218 55 203 16.0 21.0 0.00 0.00 0.00 37 1010.3
20260505002217 55 203 18.0 25.0 0.00 0.00 0.00 37 1010.4
20260505001217 55 203 17.0 22.0 0.00 0.00 0.00 36 1010.3
20260505000218 56 203 15.0 21.0 0.00 0.00 0.00 35 1010.5
20260504235217 56 203 17.0 26.0 0.00 0.00 0.00 35 1010.4
20260504234218 56 203 19.0 24.0 0.00 0.00 0.00 34 1010.2
20260504233217 56 203 18.0 23.0 0.00 0.00 0.00 33 1010.3
20260504232238 57 203 18.0 25.0 0.00 0.00 0.00 31 1010.6
20260504231217 57 203 20.0 26.0 0.00 0.00 0.00 30 1010.7
20260504230238 57 203 21.0 24.0 0.00 0.00 0.00 30 1010.2
20260504225218 57 203 17.0 24.0 0.00 0.00 0.00 28 1010.3
20260504224217 58 203 21.0 30.0 0.00 0.00 0.00 29 1010.6
20260504223218 58 203 17.0 21.0 0.00 0.00 0.00 31 1010.8
20260504222217 59 203 20.0 27.0 0.00 0.00 0.00 32 1010.7
20260504221237 59 203 18.0 25.0 0.00 0.00 0.00 32 1011.0
20260504220217 59 225 16.0 30.0 0.00 0.00 0.00 32 1011.7
20260504215217 58 203 20.0 26.0 0.00 0.00 0.00 32 1011.8
20260504214217 58 180 18.0 24.0 0.00 0.00 0.00 33 1011.9
20260504213217 59 203 19.0 22.0 0.00 0.00 0.00 29 1012.1
20260504212218 58 203 16.0 21.0 0.00 0.00 0.00 32 1012.2
20260504211217 59 203 17.0 22.0 0.00 0.00 0.00 32 1012.1
20260504210218 58 203 14.0 22.0 0.00 0.00 0.00 35 1011.9
20260504205217 59 203 15.0 20.0 0.00 0.00 0.00 32 1012.4